x

8726607 - Old Port Tampa, Fl (optf1) Weather Station

7:54am - Sat 19th Apr 2014 All times are EDT. -4 hours from GMT.

  • Wind
    14mph, 18mph gusts
  • Sea Temp 72°f
  • Air Temp 68°f
  • Sea Pressure 1014.3mb
  • 8726607 - Old Port Tampa, Fl
  • 8726607 - Old Port Tampa, Fl

More Historic Weather Station data

Upgrade to MSW Pro to gain access to the past 30 days of data for over 8000 Wavebouys and Weather Stations around the globe.

Join Pro

Comparision Forecast

View Surf forecast
   
Sat 04/19 7:54am 14 18 mph 1014.3mb 72f 68f
7:48am 16 20 mph 1014.3mb 72f 68f
7:42am 15 20 mph 1014.2mb 72f 68f
7:36am 17 20 mph 1014.2mb 72f 68f
7:30am 14 18 mph 1014.1mb 72f 69f
7:24am 16 21 mph 1014.2mb 72f 68f
7:18am 14 18 mph 1014.1mb 72f 68f
7:12am 13 15 mph 1014.1mb 72f 68f
7:06am 11 15 mph 1014mb 72f 68f
7:00am 13 16 mph 1013.9mb 72f 68f
6:54am 14 17 mph 1013.9mb 72f 68f
6:48am 13 15 mph 1013.8mb 72f 68f
6:42am 10 14 mph 1013.7mb 72f 69f
6:36am 11 14 mph 1013.7mb 72f 69f
6:30am 13 15 mph 1013.6mb 72f 69f
6:24am 9 13 mph 1013.6mb 72f 69f
6:18am 10 13 mph 1013.5mb 72f 69f
6:12am 11 15 mph 1013.5mb 72f 69f
6:06am 13 18 mph 1013.6mb 72f 69f
6:00am 16 18 mph 1013.6mb 72f 70f
5:54am 14 15 mph 1013.5mb 72f 70f
5:48am 13 15 mph 1013.3mb 72f 70f
5:42am 13 14 mph 1013.2mb 72f 70f
5:36am 11 14 mph 1013.2mb 72f 70f
5:30am 13 17 mph 1013.1mb 72f 70f
5:24am 13 15 mph 1013mb 72f 70f
5:18am 13 15 mph 1012.8mb 73f 70f
5:12am 13 15 mph 1012.9mb 73f 70f
5:06am 11 14 mph 1012.9mb 73f 70f
5:00am 13 14 mph 1012.9mb 73f 70f
4:54am 11 15 mph 1012.8mb 73f 71f
4:48am 13 15 mph 1012.7mb 73f 70f
4:42am 13 18 mph 1012.8mb 73f 71f
4:36am 15 18 mph 1012.8mb 73f 71f
4:30am 14 18 mph 1012.8mb 73f 71f
4:24am 15 18 mph 1012.7mb 73f 71f
4:18am 14 17 mph 1012.6mb 73f 71f
4:12am 16 22 mph 1012.5mb 73f 72f
4:06am 14 17 mph 1012.5mb 73f 72f
4:00am 15 17 mph 1012.6mb 73f 72f
3:54am 13 15 mph 1012.6mb 73f 72f
3:48am 13 15 mph 1012.7mb 73f 72f
3:42am 14 16 mph 1012.7mb 73f 72f
3:36am 15 16 mph 1012.8mb 73f 72f
3:30am 14 15 mph 1012.8mb 73f 72f
3:24am 13 15 mph 1012.9mb 73f 72f
3:18am 14 16 mph 1013mb 73f 72f
3:12am 15 17 mph 1013.1mb 73f 73f
3:06am 15 20 mph 1013.2mb 73f 73f
3:00am 17 20 mph 1013.2mb 73f 73f
2:54am 17 21 mph 1013.4mb 73f 73f
2:48am 17 21 mph 1013.4mb 73f 73f
2:42am 17 21 mph 1013.5mb 73f 73f
2:36am 17 20 mph 1013.5mb 73f 72f
2:30am 16 20 mph 1013.7mb 73f 72f
2:24am 15 20 mph 1013.8mb 73f 72f
2:18am 14 16 mph 1013.9mb 73f 72f
2:12am 13 16 mph 1013.9mb 73f 72f
2:06am 10 16 mph 1013.9mb 73f 72f
2:00am 14 15 mph 1014mb 73f 71f
1:54am 13 14 mph 1013.9mb 73f 71f
1:48am 10 15 mph 1014mb 73f 71f
1:42am 11 16 mph 1014mb 73f 71f
1:36am 10 14 mph 1014mb 73f 71f
1:30am 11 14 mph 1014mb 73f 71f
1:24am 11 15 mph 1014.1mb 73f 71f
1:18am 9 14 mph 1014.2mb 73f 71f
1:12am 9 14 mph 1014.2mb 73f 71f
1:06am 11 14 mph 1014.2mb 73f 71f
1:00am 10 13 mph 1014.2mb 73f 71f
12:54am 9 14 mph 1014.2mb 73f 71f
12:48am 9 11 mph 1014.1mb 73f 71f
12:42am 9 14 mph 1014.2mb 73f 71f
12:36am 9 11 mph 1014.3mb 73f 71f
12:30am 8 10 mph 1014.3mb 73f 71f
12:24am 9 11 mph 1014.4mb 73f 71f
12:18am 9 10 mph 1014.4mb 73f 71f
12:12am 9 11 mph 1014.4mb 73f 71f
12:06am 9 11 mph 1014.3mb 73f 71f
12:00am 9 13 mph 1014.4mb 73f 71f
Fri 04/18 11:54pm 8 10 mph 1014.5mb 73f 71f
11:48pm 8 10 mph 1014.5mb 73f 71f
11:42pm 8 10 mph 1014.5mb 73f 71f
11:36pm 8 10 mph 1014.5mb 73f 70f
11:30pm 9 10 mph 1014.5mb 73f 71f
11:24pm 7 9 mph 1014.6mb 73f 70f
11:18pm 7 9 mph 1014.6mb 73f 70f
11:12pm 7 9 mph 1014.5mb 73f 70f
11:06pm 7 9 mph 1014.5mb 73f 70f
11:00pm 7 9 mph 1014.6mb 73f 70f
10:54pm 7 8 mph 1014.5mb 73f 71f
10:48pm 6 8 mph 1014.6mb 73f 71f
10:42pm 8 9 mph 1014.7mb 73f 71f
10:36pm 6 8 mph 1014.7mb 73f 71f
10:30pm 7 9 mph 1014.6mb 73f 71f
10:24pm 8 10 mph 1014.6mb 73f 71f
10:18pm 7 9 mph 1014.6mb 73f 71f
10:12pm 7 8 mph 1014.5mb 73f 71f
10:06pm 7 10 mph 1014.5mb 73f 71f
10:00pm 7 9 mph 1014.4mb 73f 71f
9:54pm 8 10 mph 1014.4mb 73f 71f
9:48pm 8 10 mph 1014.4mb 74f 71f
9:42pm 8 10 mph 1014.4mb 74f 71f
9:36pm 8 10 mph 1014.3mb 74f 71f
9:30pm 7 9 mph 1014.3mb 74f 71f
9:24pm 6 10 mph 1014.3mb 74f 71f
9:18pm 7 9 mph 1014.3mb 74f 71f
9:12pm 7 9 mph 1014.2mb 74f 71f
9:06pm 7 9 mph 1014.1mb 74f 71f
9:00pm 7 10 mph 1014.1mb 74f 71f
8:54pm 7 9 mph 1014mb 74f 71f
8:48pm 7 8 mph 1014mb 74f 71f
8:42pm 7 9 mph 1013.9mb 74f 71f
8:36pm 6 10 mph 1013.9mb 74f 71f
8:30pm 8 9 mph 1013.9mb 74f 71f
8:24pm 6 10 mph 1013.8mb 74f 71f
8:18pm 9 11 mph 1013.8mb 74f 71f
8:12pm 8 10 mph 1013.8mb 74f 71f
8:06pm 8 10 mph 1013.8mb 74f 71f
8:00pm 7 10 mph 1013.8mb 74f 70f
7:54pm 6 9 mph 1013.8mb 74f 70f
7:48pm 6 8 mph 1013.8mb 74f 70f
7:42pm 6 7 mph 1013.8mb 74f 70f
7:36pm 7 9 mph 1013.8mb 74f 70f
7:30pm 5 9 mph 1013.8mb 74f 70f
7:24pm 6 8 mph 1013.9mb 74f 70f
7:18pm 6 8 mph 1014mb 74f 70f
7:12pm 6 7 mph 1014mb 74f 70f
7:06pm 3 7 mph 1013.9mb 74f 70f
7:00pm 5 7 mph 1014.1mb 74f 70f
6:54pm 5 7 mph 1014.1mb 74f 70f
6:48pm 5 7 mph 1014.2mb 74f 70f
6:42pm 5 6 mph 1014.2mb 74f 70f
6:36pm 6
mph
1014.2mb 74f 70f
6:30pm 6 7 mph 1014.3mb 74f 69f
6:24pm 6 7 mph 1014.5mb 74f 69f
6:18pm 7 9 mph 1014.6mb 74f 69f
6:12pm 7 10 mph 1014.7mb 74f 70f
6:06pm 9 13 mph 1014.7mb 74f 70f
6:00pm 9 11 mph 1015.1mb 74f 70f
5:54pm 8 10 mph 1015mb 74f 70f
5:48pm 7 10 mph 1014.8mb 74f 70f
5:42pm 7 10 mph 1014.8mb 74f 70f
5:36pm 7 8 mph 1015mb 74f 70f
5:30pm 8 11 mph 1015.1mb 74f 70f
5:24pm 8 11 mph 1015.1mb 74f 70f
5:18pm 8 11 mph 1015.2mb 74f 70f
5:12pm 9 11 mph 1015.3mb 74f 70f
5:06pm 9 11 mph 1015.5mb 74f 70f
5:00pm 9 13 mph 1015.5mb 74f 70f
4:54pm 9 14 mph 1015.4mb 74f 70f
4:48pm 11 14 mph 1015.4mb 73f 70f
4:42pm 13 15 mph 1015.6mb 73f 70f
4:36pm 11 14 mph 1015.7mb 73f 70f
4:30pm 11 14 mph 1015.7mb 73f 70f
4:24pm 10 16 mph 1015.5mb 73f 70f
4:18pm 14 17 mph 1015.7mb 73f 70f
4:12pm 13 15 mph 1015.7mb 73f 70f
4:06pm 11 15 mph 1015.9mb 73f 70f
4:00pm 13 16 mph 1016.1mb 73f 70f
3:54pm 10 13 mph 1016mb 73f 70f
3:48pm 8 11 mph 1015.9mb 73f 69f
3:42pm 8 11 mph 1015.9mb 73f 69f
3:36pm 9 13 mph 1016.2mb 73f 69f
3:30pm 10 14 mph 1016.5mb 73f 69f
3:24pm 9 14 mph 1016.1mb 73f 69f
3:18pm 11 15 mph 1016.5mb 73f 68f
3:12pm 15 16 mph 1016.8mb 73f 68f
3:06pm 14 16 mph 1017.1mb 73f 68f
3:00pm 14 17 mph 1017.3mb 73f 68f
2:54pm 15 20 mph 1017.2mb 73f 67f
2:48pm 17 20 mph 1017.2mb 73f 67f
2:42pm 18 23 mph 1017.2mb 73f 67f
2:36pm 25 36 mph 1017.6mb 73f 68f
2:30pm 29 36 mph 1017.1mb 73f 72f
2:24pm 9 11 mph 1016.1mb 73f 75f
2:18pm 10 15 mph 1015.9mb 73f 75f
2:12pm 14 18 mph 1016.2mb 73f 75f
2:06pm 11 14 mph 1016.4mb 73f 75f
2:00pm 9 11 mph 1016.8mb 73f 76f
1:54pm 7 10 mph 1016.7mb 73f 76f
1:48pm 8 10 mph 1016.6mb 73f 76f
1:42pm 6 10 mph 1016.5mb 73f 76f
1:36pm 8 10 mph 1016.6mb 73f 76f
1:30pm 8 10 mph 1016.5mb 73f 76f
1:24pm 7 13 mph 1016.5mb 73f 76f
1:18pm 9 13 mph 1016.5mb 73f 76f
1:12pm 9 13 mph 1016.5mb 73f 76f
1:06pm 9 13 mph 1016.5mb 73f 76f
1:00pm 9 13 mph 1016.5mb 73f 76f
12:54pm 9 11 mph 1016.5mb 73f 76f
12:48pm 7 13 mph 1016.6mb 73f 76f
12:42pm 8 11 mph 1016.7mb 73f 76f
12:36pm 9 13 mph 1016.8mb 73f 76f
12:30pm 8 11 mph 1016.8mb 73f 76f
12:24pm 8 13 mph 1016.8mb 73f 76f
12:18pm 8 13 mph 1016.9mb 73f 75f
12:12pm 9 13 mph 1017mb 73f 75f
12:06pm 8 11 mph 1017.1mb 73f 75f
12:00pm 9 13 mph 1017.2mb 73f 75f
11:54am 8 13 mph 1017.2mb 73f 75f
11:48am 7 14 mph 1017.1mb 73f 75f
11:42am 9 15 mph 1017mb 73f 75f
11:36am 10 15 mph 1017mb 73f 75f
11:30am 10 17 mph 1016.8mb 73f 75f
11:24am 9 14 mph 1016.8mb 73f 74f
11:18am 11 16 mph 1016.9mb 73f 74f
11:12am 9 15 mph 1017mb 73f 74f
11:06am 8 14 mph 1017.1mb 73f 74f
11:00am 9 15 mph 1017.1mb 73f 74f
10:54am 9 14 mph 1017.1mb 73f 74f
10:48am 9 14 mph 1017.1mb 73f 74f
10:42am 9 14 mph 1017.1mb 73f 74f
10:36am 9 18 mph 1017.1mb 73f 73f
10:30am 9 13 mph 1017.2mb 73f 73f
10:24am 10 15 mph 1017.1mb 73f 73f
10:18am 10 17 mph 1017.1mb 73f 73f
10:12am 9 16 mph 1017.2mb 73f 73f
10:06am 9 21 mph 1017mb 73f 73f
10:00am 8 11 mph 1016.9mb 73f 73f
9:54am 11 18 mph 1016.9mb 73f 73f
9:48am 10 15 mph 1016.9mb 73f 73f
9:42am 9 17 mph 1016.9mb 73f 73f
9:36am 9 16 mph 1016.8mb 73f 73f
9:30am 8 17 mph 1016.9mb 73f 73f
9:24am 10 15 mph 1016.8mb 73f 73f
9:18am 11 18 mph 1016.8mb 73f 72f
9:12am 11 18 mph 1016.9mb 73f 72f
9:06am 10 17 mph 1017mb 73f 72f
9:00am 11 16 mph 1017.1mb 73f 72f
8:54am 10 14 mph 1017mb 73f 72f
8:48am 9 15 mph 1017mb 73f 72f
8:42am 11 16 mph 1017mb 73f 72f
8:36am 11 15 mph 1017.3mb 73f 72f
8:30am 8 14 mph 1017.5mb 73f 72f
8:24am 10 16 mph 1017.7mb 73f 72f
8:18am 8 14 mph 1017.9mb 73f 72f
8:12am 9 14 mph 1017.8mb 73f 72f
8:06am 8 15 mph 1017.8mb 73f 71f
8:00am 9 14 mph 1017.9mb 73f 71f
7:54am 8 14 mph 1018.1mb 73f 71f
7:48am 8 14 mph 1018mb 73f 71f
7:42am 9 14 mph 1018mb 73f 71f
7:36am 8 16 mph 1018mb 73f 71f
7:30am 10 15 mph 1018mb 73f 71f
7:24am 9 15 mph 1018mb 73f 71f
7:18am 9 17 mph 1017.9mb 73f 71f
7:12am 10 18 mph 1017.8mb 73f 71f
7:06am 9 18 mph 1017.7mb 73f 71f
7:00am 10 17 mph 1017.6mb 73f 71f
6:54am 11 16 mph 1017.5mb 73f 71f
6:48am 13 20 mph 1017.4mb 73f 71f
6:42am 11 17 mph 1017.5mb 73f 71f
6:36am 7 18 mph 1017.4mb 73f 71f
6:30am 11 17 mph 1017.4mb 73f 71f
6:24am 11 17 mph 1017.4mb 73f 71f
6:18am 10 15 mph 1017.2mb 73f 71f
6:12am 11 16 mph 1017.1mb 73f 71f
6:06am 13 21 mph 1016.9mb 73f 71f
6:00am 10 18 mph 1017mb 73f 71f
5:54am 13 16 mph 1017mb 73f 71f
5:48am 9 18 mph 1017.1mb 73f 71f
5:42am 11 17 mph 1017mb 73f 71f
5:36am 9 21 mph 1017mb 73f 71f
5:30am 11 18 mph 1017mb 73f 71f
5:24am 10 16 mph 1017.1mb 73f 71f
5:18am 13 18 mph 1017mb 73f 71f
5:12am 11 17 mph 1017mb 73f 71f
5:06am 10 17 mph 1017mb 73f 71f
5:00am 10 20 mph 1017.1mb 73f 71f
4:54am 11 20 mph 1017.1mb 73f 71f
4:48am 10 18 mph 1017.1mb 74f 71f
4:42am 9 18 mph 1017.1mb 74f 71f
4:36am 9 15 mph 1017mb 74f 71f
4:30am 9 15 mph 1017.2mb 74f 71f
4:24am 8 14 mph 1017.4mb 74f 71f
4:18am 9 15 mph 1017.4mb 74f 71f
4:12am 10 15 mph 1017.6mb 74f 71f
4:06am 7 13 mph 1017.7mb 74f 71f
4:00am 9 15 mph 1017.8mb 74f 71f
3:54am 9 13 mph 1017.9mb 74f 71f
3:48am 10 16 mph 1018mb 74f 71f
3:42am 7 13 mph 1018.2mb 74f 71f
3:36am 6 10 mph 1018.3mb 74f 71f
3:30am 8 13 mph 1018.3mb 74f 71f
3:24am 6 13 mph 1018.4mb 74f 71f
3:18am 10 16 mph 1018.4mb 74f 71f
3:12am 6 14 mph 1018.5mb 74f 71f
3:06am 7 10 mph 1018.6mb 74f 71f
3:00am 7 10 mph 1018.5mb 74f 71f
2:54am 7 13 mph 1018.8mb 74f 71f
2:48am 7 13 mph 1018.8mb 74f 71f
2:42am 6 11 mph 1018.9mb 74f 71f
2:36am 7 11 mph 1019.1mb 74f 71f
2:30am 6 9 mph 1019.3mb 74f 71f
2:24am 7 14 mph 1019.4mb 74f 71f
2:18am 6 10 mph 1019.4mb 74f 71f
2:12am 7 13 mph 1019.5mb 74f 71f
2:06am 6 10 mph 1019.7mb 74f 71f
2:00am 7 11 mph 1019.8mb 74f 71f
1:54am 7 11 mph 1019.9mb 74f 71f
1:48am 9 13 mph 1020mb 74f 71f
1:42am 8 11 mph 1019.8mb 74f 71f
1:36am 7 11 mph 1019.9mb 74f 71f
1:30am 8 14 mph 1020.1mb 74f 70f
1:24am 8 13 mph 1019.9mb 74f 70f
1:18am 9 14 mph 1020mb 74f 70f
1:12am 8 11 mph 1020mb 74f 70f
1:06am 8 11 mph 1020.1mb 74f 70f
1:00am 6 9 mph 1020.5mb 74f 70f
12:54am 6 11 mph 1020.7mb 74f 70f
12:48am 7 11 mph 1020.5mb 74f 70f
12:42am 6 10 mph 1020.4mb 74f 70f
12:36am 7 15 mph 1020.4mb 74f 70f
12:30am 7 13 mph 1020.5mb 74f 70f
12:24am 8 14 mph 1020.3mb 74f 70f
12:18am 7 13 mph 1020.3mb 74f 70f
12:12am 6 11 mph 1020.3mb 74f 70f
12:06am 7 13 mph 1020.3mb 74f 70f
12:00am 8 11 mph 1020.2mb 74f 70f
Thu 04/17 11:54pm 6 14 mph 1020.5mb 74f 70f
11:48pm 8 15 mph 1020.2mb 74f 70f
11:42pm 8 13 mph 1020.5mb 74f 70f
11:36pm 7 10 mph 1020.8mb 74f 70f
11:30pm 8 14 mph 1020.8mb 74f 70f
11:24pm 7 13 mph 1020.7mb 74f 70f
11:18pm 7 14 mph 1020.8mb 74f 70f
11:12pm 8 13 mph 1020.9mb 74f 70f
11:06pm 8 11 mph 1020.7mb 74f 70f
11:00pm 7 13 mph 1021mb 74f 70f
10:54pm 6 10 mph 1021.1mb 74f 70f
10:48pm 6 9 mph 1021.2mb 74f 70f
10:42pm 6 11 mph 1021.4mb 74f 70f
10:36pm 5 8 mph 1021.5mb 74f 70f
10:30pm 6 8 mph 1021.5mb 74f 70f
10:24pm 5 10 mph 1021.3mb 74f 70f
10:18pm 6 10 mph 1021.1mb 74f 70f
10:12pm 7 11 mph 1020.8mb 74f 70f
10:06pm 7 14 mph 1020.5mb 74f 70f
10:00pm 9 14 mph 1020.3mb 74f 70f
9:54pm 8 15 mph 1020.5mb 74f 70f
9:48pm 8 14 mph 1020.8mb 74f 70f
9:42pm 8 13 mph 1021.1mb 74f 71f
9:36pm 10 15 mph 1021.1mb 74f 71f
9:30pm 8 15 mph 1021.1mb 74f 71f
9:24pm 9 15 mph 1021mb 74f 72f
9:18pm 11 18 mph 1020.9mb 74f 72f
9:12pm 10 21 mph 1021mb 74f 73f
9:06pm 10 20 mph 1021.3mb 74f 73f
9:00pm 14 20 mph 1021.4mb 74f 73f
8:54pm 10 18 mph 1021.3mb 74f 73f
8:48pm 13 22 mph 1021.1mb 74f 73f
8:42pm 15 24 mph 1020.9mb 74f 74f
8:36pm 11 17 mph 1020.9mb 74f 74f
8:30pm 15 22 mph 1020.8mb 74f 74f
8:24pm 14 20 mph 1020.6mb 74f 74f
8:18pm 8 18 mph 1020.4mb 74f 74f
8:12pm 13 20 mph 1020.4mb 74f 74f
8:06pm 10 20 mph 1020.4mb 74f 74f
8:00pm 11 20 mph 1020.4mb 74f 74f
7:54pm 10 17 mph 1020.5mb 74f 74f
7:48pm 10 17 mph 1020.5mb 74f 74f
7:42pm 10 21 mph 1020.5mb 74f 74f
7:36pm 13 18 mph 1020.5mb 74f 74f
7:30pm 14 21 mph 1020.3mb 74f 74f
7:24pm 13 23 mph 1020.2mb 74f 74f
7:18pm 14 22 mph 1020.2mb 74f 74f
7:12pm 9 21 mph 1020.3mb 74f 74f
7:06pm 13 22 mph 1020.3mb 74f 74f
7:00pm 13 22 mph 1020.2mb 74f 74f
6:54pm 14 21 mph 1019.9mb 74f 75f
6:48pm 9 17 mph 1020mb 74f 75f
6:42pm 11 17 mph 1020mb 74f 75f
6:36pm 13 21 mph 1019.9mb 74f 75f
6:30pm 13 17 mph 1019.9mb 74f 75f
6:24pm 11 17 mph 1019.9mb 74f 76f
6:18pm 10 22 mph 1019.9mb 74f 75f
6:12pm 14 22 mph 1020mb 74f 76f
6:06pm 13 20 mph 1020mb 74f 76f
6:00pm 14 23 mph 1020.1mb 74f 75f
5:54pm 13 28 mph 1020.1mb 74f 75f
5:48pm 10 21 mph 1020mb 74f 76f
5:42pm 15 21 mph 1019.8mb 74f 76f
5:36pm 11 20 mph 1019.7mb 74f 76f
5:30pm 11 21 mph 1019.5mb 74f 76f
5:24pm 11 17 mph 1019.8mb 74f 76f
5:18pm 10 20 mph 1019.8mb 74f 76f
5:12pm 11 18 mph 1019.7mb 74f 76f
5:06pm 15 23 mph 1019.6mb 74f 76f
5:00pm 13 22 mph 1019.6mb 74f 76f
4:54pm 14 22 mph 1019.6mb 74f 76f
4:48pm 10 17 mph 1019.7mb 74f 77f
4:42pm 10 22 mph 1019.8mb 74f 76f
4:36pm 14 23 mph 1019.7mb 74f 76f
4:30pm 13 22 mph 1019.8mb 74f 77f
4:24pm 14 21 mph 1019.8mb 74f 76f
4:18pm 11 17 mph 1019.8mb 74f 78f
4:12pm 11 29 mph 1019.9mb 74f 77f
4:06pm 14 24 mph 1019.8mb 74f 77f
4:00pm 11 20 mph 1019.9mb 74f 78f
3:54pm 14 21 mph 1020mb 74f 77f
3:48pm 15 23 mph 1020.1mb 74f 78f
3:42pm 13 21 mph 1020.2mb 74f 77f
3:36pm 14 21 mph 1020.4mb 74f 78f
3:30pm 11 23 mph 1020.4mb 74f 78f
3:24pm 14 21 mph 1020.4mb 74f 78f
3:18pm 13 22 mph 1020.5mb 74f 78f
3:12pm 15 23 mph 1020.7mb 74f 78f
3:06pm 14 22 mph 1020.8mb 74f 78f
3:00pm 13 21 mph 1020.9mb 73f 78f
2:54pm 14 21 mph 1021mb 73f 78f
2:48pm 14 18 mph 1021mb 73f 78f
2:42pm 14 20 mph 1021mb 73f 78f
2:36pm 10 18 mph 1021.1mb 73f 79f
2:30pm 10 18 mph 1021.3mb 73f 78f
2:24pm 9 15 mph 1021.3mb 73f 79f
2:18pm 7 13 mph 1021.5mb 73f 79f
2:12pm 10 14 mph 1021.6mb 74f 79f
2:06pm 13 17 mph 1021.6mb 74f 79f
2:00pm 10 16 mph 1021.5mb 74f 79f
1:54pm 10 16 mph 1021.4mb 74f 80f
1:48pm 9 15 mph 1021.6mb 74f 80f
1:42pm 10 16 mph 1021.7mb 74f 79f
1:36pm 11 18 mph 1021.7mb 74f 79f
1:30pm 11 17 mph 1021.7mb 74f 79f
1:24pm 10 17 mph 1021.7mb 73f 79f
1:18pm 13 17 mph 1021.7mb 73f 78f
1:12pm 10 16 mph 1021.9mb 73f 79f
1:06pm 13 16 mph 1022mb 73f 78f
1:00pm 11 15 mph 1022mb 73f 79f
12:54pm 10 17 mph 1022mb 73f 78f
12:48pm 10 20 mph 1022.1mb 73f 78f
12:42pm 10 18 mph 1022mb 73f 77f
12:36pm 11 21 mph 1022mb 73f 77f
12:30pm 10 17 mph 1022.2mb 73f 77f
12:24pm 10 16 mph 1022.2mb 73f 77f
12:18pm 11 17 mph 1022.2mb 73f 77f
12:12pm 10 21 mph 1022.1mb 73f 77f
12:06pm 11 21 mph 1022.1mb 73f 76f
12:00pm 11 18 mph 1022.1mb 73f 76f
11:54am 14 18 mph 1022.2mb 73f 76f
11:48am 11 22 mph 1022.2mb 73f 76f
11:42am 14 21 mph 1022.3mb 73f 76f
11:36am 14 20 mph 1022.3mb 73f 75f
11:30am 13 20 mph 1022.4mb 73f 75f
11:24am 11 18 mph 1022.5mb 73f 75f
11:18am 9 16 mph 1022.5mb 73f 75f
11:12am 8 15 mph 1022.5mb 73f 74f
11:06am 11 17 mph 1022.6mb 73f 73f
11:00am 11 15 mph 1022.6mb 73f 73f
10:54am 8 17 mph 1022.6mb 73f 72f
10:48am 10 15 mph 1022.5mb 73f 71f
10:42am 10 14 mph 1022.6mb 73f 71f
10:36am 6 11 mph 1022.6mb 73f 71f
10:30am 8 13 mph 1022.6mb 73f 70f
10:24am 6 10 mph 1022.6mb 73f 69f
10:18am 6 11 mph 1022.6mb 73f 69f
10:12am 7 11 mph 1022.6mb 73f 69f
10:06am 6 13 mph 1022.5mb 73f 69f
10:00am 10 14 mph 1022.3mb 73f 69f
9:54am 5 10 mph 1022.3mb 73f 69f
9:48am 7 15 mph 1022.3mb 73f 69f
9:42am 7 14 mph 1022.2mb 73f 68f
9:36am 10 14 mph 1022.1mb 73f 68f
9:30am 8 14 mph 1022mb 73f 68f
9:24am 8 13 mph 1021.8mb 73f 68f
9:18am 8 16 mph 1021.6mb 73f 67f
9:12am 9 16 mph 1021.5mb 73f 67f
9:06am 9 17 mph 1021.5mb 73f 66f
9:00am 9 16 mph 1021.7mb 73f 66f
8:54am 9 17 mph 1021.6mb 73f 66f
8:48am 8 11 mph 1021.7mb 73f 66f
8:42am 6 10 mph 1021.6mb 73f 66f
8:36am 7 14 mph 1021.6mb 73f 65f
8:30am 7 10 mph 1021.5mb 73f 65f
8:24am 7 15 mph 1021.4mb 73f 65f
8:18am 8 13 mph 1021.3mb 73f 65f
8:12am 6 10 mph 1021.6mb 73f 65f
8:06am 7 9 mph 1021.6mb 73f 65f
8:00am 8 10 mph 1021.6mb 73f 64f
7:54am 7 10 mph 1021.5mb 73f 64f
7:48am 8 14 mph 1021.4mb 73f 64f
7:42am 5 11 mph 1021.4mb 73f 64f
7:36am 9 13 mph 1021.1mb 73f 64f
7:30am 9 13 mph 1021mb 73f 64f
7:24am 7 11 mph 1021mb 73f 64f
7:18am 9 15 mph 1021.1mb 73f 64f
7:12am 7 13 mph 1021.1mb 73f 64f
7:06am 8 14 mph 1021.1mb 73f 64f
7:00am 10 15 mph 1021mb 73f 64f
6:54am 8 11 mph 1020.9mb 73f 64f
6:48am 6 11 mph 1020.9mb 73f 64f
6:42am 8 11 mph 1020.7mb 73f 64f
6:36am 7 13 mph 1020.7mb 73f 64f
6:30am 3 8 mph 1020.9mb 73f 64f
6:24am 5 13 mph 1020.8mb 73f 64f
6:18am 6 10 mph 1020.7mb 73f 64f
6:12am 8 13 mph 1020.7mb 73f 64f
6:06am 9 13 mph 1020.6mb 73f 64f
6:00am 8 11 mph 1020.5mb 73f 64f
5:54am 6 11 mph 1020.3mb 73f 64f
5:48am 8 11 mph 1020.2mb 73f 64f
5:42am 6 10 mph 1020.3mb 73f 64f
5:36am 7 14 mph 1020.3mb 73f 64f
5:30am 8 13 mph 1020.2mb 73f 64f
5:24am 7 11 mph 1020.2mb 73f 64f
5:18am 8 11 mph 1020.2mb 73f 64f
5:12am 8 13 mph 1020.2mb 73f 64f
5:06am 10 14 mph 1020mb 73f 64f
5:00am 8 13 mph 1019.9mb 73f 64f
4:54am 9 11 mph 1019.8mb 73f 64f
4:48am 6 14 mph 1019.7mb 73f 64f
4:42am 7 11 mph 1019.7mb 73f 64f
4:36am 10 14 mph 1019.6mb 73f 64f
4:30am 9 16 mph 1019.6mb 73f 64f
4:24am 6 14 mph 1019.6mb 74f 64f
4:18am 9 13 mph 1019.6mb 74f 63f
4:12am 6 16 mph 1019.6mb 74f 63f
4:06am 7 13 mph 1019.7mb 74f 63f
4:00am 7 16 mph 1019.6mb 74f 63f
3:54am 8 14 mph 1019.6mb 74f 63f
3:48am 8 14 mph 1019.6mb 74f 63f
3:42am 6 15 mph 1019.7mb 74f 63f
3:36am 9 15 mph 1019.7mb 74f 63f
3:30am 8 14 mph 1019.7mb 74f 63f
3:24am 7 15 mph 1019.8mb 74f 63f
3:18am 9 15 mph 1019.9mb 74f 63f
3:12am 8 17 mph 1019.9mb 74f 63f
3:06am 9 14 mph 1019.9mb 74f 63f
3:00am 9 16 mph 1020mb 74f 63f
2:54am 9 14 mph 1020.1mb 74f 63f
2:48am 8 16 mph 1020.2mb 74f 63f
2:42am 7 14 mph 1020.1mb 74f 63f
2:36am 8 14 mph 1020.1mb 74f 63f
2:30am 10 16 mph 1020.2mb 74f 63f
2:24am 10 16 mph 1020.3mb 74f 63f
2:18am 8 15 mph 1020.4mb 74f 63f
2:12am 9 15 mph 1020.4mb 74f 63f
2:06am 8 13 mph 1020.5mb 74f 63f
2:00am 8 15 mph 1020.6mb 74f 63f
1:54am 9 14 mph 1020.7mb 74f 63f
1:48am 10 16 mph 1020.7mb 74f 63f
1:42am 9 15 mph 1020.7mb 74f 63f
1:36am 7 13 mph 1020.8mb 74f 63f
1:30am 9 15 mph 1020.8mb 74f 63f
1:24am 8 13 mph 1020.9mb 74f 63f
1:18am 7 14 mph 1020.9mb 74f 63f
1:12am 9 14 mph 1021mb 74f 63f
1:06am 8 16 mph 1021.1mb 74f 63f
1:00am 9 13 mph 1021.1mb 74f 63f
12:54am 9 15 mph 1021.1mb 74f 63f
12:48am 10 16 mph 1021.2mb 74f 63f
12:42am 7 15 mph 1021.1mb 74f 63f
12:36am 8 13 mph 1021.1mb 74f 64f
12:30am 9 14 mph 1021.2mb 74f 64f
12:24am 11 15 mph 1021.2mb 74f 64f
12:18am 9 15 mph 1021.3mb 74f 64f
12:12am 10 15 mph 1021.3mb 74f 64f
12:06am 8 15 mph 1021.3mb 74f 64f
12:00am 8 15 mph 1021.2mb 74f 64f
Wed 04/16 11:54pm 8 14 mph 1021.2mb 74f 64f
11:48pm 9 18 mph 1021.2mb 74f 64f
11:42pm 9 14 mph 1021.2mb 74f 64f
11:36pm 9 14 mph 1021.2mb 74f 64f
11:30pm 9 20 mph 1021.1mb 74f 64f
11:24pm 8 17 mph 1021mb 74f 65f
11:18pm 10 17 mph 1021mb 74f 65f
11:12pm 10 17 mph 1021mb 74f 65f
11:06pm 9 15 mph 1021mb 74f 65f
11:00pm 13 18 mph 1020.9mb 74f 65f
10:54pm 10 18 mph 1020.8mb 74f 66f
10:48pm 11 20 mph 1020.8mb 74f 66f
10:42pm 9 16 mph 1020.8mb 74f 66f
10:36pm 11 18 mph 1020.7mb 74f 66f
10:30pm 13 16 mph 1020.7mb 74f 66f
10:24pm 13 17 mph 1020.7mb 74f 67f
10:18pm 13 21 mph 1020.6mb 74f 67f
10:12pm 11 21 mph 1020.4mb 74f 67f
10:06pm 10 20 mph 1020.4mb 74f 67f
10:00pm 11 22 mph 1020.3mb 74f 67f
9:54pm 13 18 mph 1020.2mb 74f 68f
9:48pm 7 20 mph 1020.1mb 74f 68f
9:42pm 14 21 mph 1020mb 74f 68f
9:36pm 13 20 mph 1019.9mb 74f 69f
9:30pm 11 20 mph 1019.9mb 74f 69f
9:24pm 13 21 mph 1019.8mb 75f 69f
9:18pm 11 20 mph 1019.8mb 75f 70f
9:12pm 15 22 mph 1019.6mb 75f 70f
9:06pm 11 18 mph 1019.6mb 75f 71f
9:00pm 14 22 mph 1019.6mb 75f 71f
8:54pm 10 16 mph 1019.5mb 75f 71f
8:48pm 11 16 mph 1019.4mb 75f 71f
8:42pm 13 17 mph 1019.3mb 75f 71f
8:36pm 9 16 mph 1019.3mb 75f 71f
8:30pm 10 17 mph 1019.2mb 75f 72f
8:24pm 9 17 mph 1019.1mb 75f 72f
8:18pm 9 20 mph 1018.9mb 74f 73f
8:12pm 14 23 mph 1018.7mb 74f 73f
8:06pm 10 18 mph 1018.7mb 74f 73f
8:00pm 14 21 mph 1018.8mb 74f 73f
7:54pm 9 14 mph 1018.8mb 74f 74f
7:48pm 6 11 mph 1018.7mb 74f 75f
7:42pm 8 13 mph 1018.6mb 74f 75f
7:36pm 8 11 mph 1018.5mb 74f 75f
7:30pm 6 11 mph 1018.4mb 74f 76f
7:24pm 8 11 mph 1018.4mb 74f 76f
7:18pm 8 13 mph 1018.3mb 74f 76f
7:12pm 6 10 mph 1018.3mb 74f 76f
7:06pm 7 10 mph 1018.3mb 74f 76f
7:00pm 8 13 mph 1018.2mb 74f 76f
6:54pm 7 14 mph 1018.2mb 74f 76f
6:48pm 6 13 mph 1018.2mb 74f 76f
6:42pm 9 14 mph 1018.2mb 74f 76f
6:36pm 7 14 mph 1018.2mb 74f 76f
6:30pm 8 10 mph 1018.2mb 74f 76f
6:24pm 7 13 mph 1018.1mb 74f 76f
6:18pm 6 11 mph 1018mb 74f 77f
6:12pm 9 14 mph 1018mb 74f 76f
6:06pm 9 16 mph 1018mb 74f 76f
6:00pm 8 13 mph 1018mb 74f 76f
5:54pm 10 14 mph 1018mb 74f 76f
5:48pm 10 14 mph 1017.9mb 74f 76f
5:42pm 10 16 mph 1017.8mb 74f 76f
5:36pm 10 15 mph 1017.7mb 74f 76f
5:30pm 8 14 mph 1017.8mb 74f 76f
5:24pm 7 13 mph 1017.7mb 74f 76f
5:18pm 6 13 mph 1017.7mb 74f 76f
5:12pm 9 16 mph 1017.7mb 74f 75f
5:06pm 10 14 mph 1017.7mb 74f 76f
5:00pm 9 14 mph 1017.8mb 74f 76f
4:54pm 9 14 mph 1017.8mb 74f 75f
4:48pm 8 14 mph 1017.9mb 74f 75f
4:42pm 9 17 mph 1017.9mb 74f 75f
4:36pm 9 14 mph 1017.9mb 74f 75f
4:30pm 7 13 mph 1017.9mb 74f 75f
4:24pm 9 11 mph 1018mb 74f 75f
4:18pm 7 13 mph 1018.2mb 74f 74f
4:12pm 6 14 mph 1018.3mb 74f 74f
4:06pm 8 14 mph 1018.3mb 74f 74f
4:00pm 7 16 mph 1018.4mb 74f 73f
3:54pm 8 14 mph 1018.4mb 74f 74f
3:48pm 7 11 mph 1018.5mb 74f 74f
3:42pm 8 14 mph 1018.5mb 74f 73f
3:36pm 10 16 mph 1018.6mb 74f 73f
3:30pm 7 16 mph 1018.8mb 74f 73f
3:24pm 9 14 mph 1018.8mb 74f 73f
3:18pm 9 14 mph 1018.8mb 74f 72f
3:12pm 9 13 mph 1018.9mb 74f 72f
3:06pm 6 13 mph 1018.9mb 74f 72f
3:00pm 11 15 mph 1018.9mb 74f 71f
2:54pm 10 16 mph 1018.9mb 74f 71f
2:48pm 9 18 mph 1019mb 74f 71f
2:42pm 8 14 mph 1019.1mb 74f 71f
2:36pm 8 14 mph 1019.1mb 74f 71f
2:30pm 8 15 mph 1019.2mb 74f 70f
2:24pm 10 17 mph 1019.3mb 74f 70f
2:18pm 8 15 mph 1019.3mb 74f 70f
2:12pm 8 13 mph 1019.4mb 74f 70f
2:06pm 10 15 mph 1019.6mb 74f 68f
2:00pm 7 16 mph 1019.7mb 74f 69f
1:54pm 9 15 mph 1019.7mb 74f 68f
1:48pm 8 14 mph 1019.7mb 74f 68f
1:42pm 10 14 mph 1019.8mb 74f 67f
1:36pm 10 15 mph 1019.8mb 74f 67f
1:30pm 11 16 mph 1019.9mb 74f 67f
1:24pm 9 18 mph 1019.9mb 74f 67f
1:18pm 9 14 mph 1020mb 74f 67f
1:12pm 10 16 mph 1020mb 74f 66f
1:06pm 8 13 mph 1020.1mb 74f 66f
1:00pm 9 15 mph 1020.2mb 74f 65f
12:54pm 9 14 mph 1020.3mb 74f 65f
12:48pm 9 16 mph 1020.4mb 74f 65f
12:42pm 9 17 mph 1020.3mb 74f 65f
12:36pm 9 13 mph 1020.4mb 74f 65f
12:30pm 9 14 mph 1020.5mb 74f 64f
12:24pm 8 15 mph 1020.4mb 74f 64f
12:18pm 9 17 mph 1020.5mb 74f 63f
12:12pm 11 15 mph 1020.4mb 74f 63f
12:06pm 9 14 mph 1020.6mb 74f 63f
12:00pm 10 14 mph 1020.6mb 74f 62f
11:54am 8 13 mph 1020.7mb 74f 62f
11:48am 9 16 mph 1020.6mb 74f 62f
11:42am 7 13 mph 1020.7mb 74f 60f
11:36am 8 16 mph 1020.7mb 74f 61f
11:30am 10 14 mph 1020.6mb 74f 60f
11:24am 10 14 mph 1020.5mb 74f 60f
11:18am 8 13 mph 1020.6mb 74f 60f
11:12am 9 17 mph 1020.7mb 74f 59f
11:06am 10 15 mph 1020.6mb 74f 59f
11:00am 10 15 mph 1020.7mb 74f 58f
10:54am 7 14 mph 1020.9mb 74f 58f
10:48am 8 15 mph 1021mb 74f 57f
10:42am 8 13 mph 1020.8mb 74f 57f
10:36am 9 15 mph 1020.8mb 74f 56f
10:30am 9 16 mph 1020.8mb 74f 56f
10:24am 11 15 mph 1020.7mb 74f 56f
10:18am 10 16 mph 1020.6mb 74f 55f
10:12am 10 15 mph 1020.6mb 74f 55f
10:06am 9 17 mph 1020.6mb 74f 55f
10:00am 10 20 mph 1020.5mb 73f 54f
9:54am 13 17 mph 1020.4mb 73f 54f
9:48am 9 14 mph 1020.3mb 73f 54f
9:42am 9 15 mph 1020.2mb 73f 54f
9:36am 10 15 mph 1020.2mb 73f 54f
9:30am 9 18 mph 1020.2mb 74f 54f
9:24am 13 16 mph 1020.2mb 74f 53f
9:18am 13 16 mph 1020.3mb 74f 53f
9:12am 9 15 mph 1020.3mb 74f 54f
9:06am 10 16 mph 1020.3mb 74f 53f
9:00am 13 17 mph 1020.2mb 74f 53f
8:54am 11 16 mph 1020.1mb 74f 53f
8:48am 8 13 mph 1020.1mb 74f 53f
8:42am 8 13 mph 1020.1mb 74f 53f
8:36am 8 16 mph 1020.2mb 74f 53f
8:30am 8 13 mph 1020.3mb 74f 52f
8:24am 9 20 mph 1020.2mb 74f 52f
8:18am 11 18 mph 1020.1mb 74f 51f
8:12am 11 18 mph 1020.1mb 74f 52f
8:06am 9 16 mph 1019.9mb 74f 52f
8:00am 11 18 mph 1019.8mb 74f 52f
7:54am 13 18 mph 1019.8mb 74f 52f
7:48am 15 18 mph 1019.8mb 74f 52f
7:42am 15 21 mph 1019.6mb 74f 52f
7:36am 10 16 mph 1019.6mb 74f 52f
7:30am 11 17 mph 1019.5mb 74f 53f
7:24am 11 17 mph 1019.2mb 74f 53f
7:18am 13 16 mph 1019mb 74f 52f
7:12am 10 16 mph 1019.1mb 74f 52f
7:06am 10 16 mph 1019mb 74f 53f
7:00am 11 16 mph 1019mb 74f 53f
6:54am 15 20 mph 1018.9mb 74f 52f
6:48am 15 17 mph 1018.8mb 75f 53f
6:42am 15 21 mph 1018.7mb 75f 53f
6:36am 15 18 mph 1018.7mb 75f 53f
6:30am 15 21 mph 1018.6mb 75f 53f
6:24am 15 18 mph 1018.6mb 75f 53f
6:18am 15 17 mph 1018.5mb 75f 53f
6:12am 13 21 mph 1018.4mb 75f 53f
6:06am 14 18 mph 1018.2mb 75f 53f
6:00am 10 16 mph 1018.1mb 75f 54f
5:54am 13 20 mph 1018mb 74f 54f
5:48am 14 18 mph 1018.1mb 74f 54f
5:42am 13 18 mph 1017.9mb 75f 54f
5:36am 15 20 mph 1017.7mb 75f 54f
5:30am 14 20 mph 1017.6mb 75f 54f
5:24am 13 18 mph 1017.6mb 75f 54f
5:18am 14 17 mph 1017.5mb 75f 54f
5:12am 13 16 mph 1017.5mb 75f 55f
5:06am 13 18 mph 1017.3mb 75f 55f
5:00am 14 20 mph 1017.2mb 75f 55f
4:54am 14 20 mph 1017.2mb 75f 55f
4:48am 15 20 mph 1017mb 75f 55f
4:42am 15 20 mph 1017mb 75f 55f
4:36am 15 21 mph 1016.9mb 75f 55f
4:30am 14 21 mph 1017mb 75f 55f
4:24am 15 21 mph 1017.1mb 75f 56f
4:18am 14 21 mph 1017mb 75f 56f
4:12am 14 21 mph 1017mb 75f 56f
4:06am 15 21 mph 1016.9mb 75f 55f
4:00am 14 20 mph 1016.8mb 75f 56f
3:54am 15 18 mph 1016.9mb 75f 56f
3:48am 16 21 mph 1016.7mb 75f 58f
3:42am 18 22 mph 1016.5mb 75f 58f
3:36am 18 21 mph 1016.4mb 75f 58f
3:30am 18 21 mph 1016.4mb 75f 58f
3:24am 16 21 mph 1016.5mb 75f 58f
3:18am 16 21 mph 1016.3mb 75f 59f
3:12am 15 22 mph 1016.4mb 75f 59f
3:06am 18 22 mph 1016.1mb 75f 60f
3:00am 17 23 mph 1016.1mb 75f 60f
2:54am 18 23 mph 1016mb 75f 60f
2:48am 21 24 mph 1015.8mb 75f 60f
2:42am 18 22 mph 1015.7mb 75f 61f
2:36am 20 22 mph 1015.8mb 75f 61f
2:30am 21 24 mph 1015.8mb 75f 61f
2:24am 21 24 mph 1015.8mb 75f 62f
2:18am 21 24 mph 1015.8mb 75f 62f
2:12am 21 23 mph 1016mb 75f 62f
2:06am 20 24 mph 1015.9mb 75f 63f
2:00am 23 25 mph 1016mb 75f 63f
1:54am 22 25 mph 1015.7mb 75f 63f
1:48am 20 23 mph 1015.8mb 75f 64f
1:42am 20 25 mph 1015.8mb 75f 64f
1:36am 21 24 mph 1015.7mb 75f 64f
1:30am 20 22 mph 1015.8mb 76f 64f
1:24am 18 22 mph 1016mb 76f 65f
1:18am 20 22 mph 1015.9mb 76f 64f
1:12am 20 23 mph 1016mb 76f 65f
1:06am 18 24 mph 1015.9mb 76f 65f
1:00am 20 26 mph 1016mb 76f 65f
12:54am 22 25 mph 1015.9mb 76f 65f
12:48am 21 24 mph 1015.9mb 76f 65f
12:42am 21 24 mph 1016mb 76f 65f
12:36am 20 22 mph 1016mb 76f 66f
12:30am 18 23 mph 1015.9mb 76f 65f
12:24am 20 24 mph 1015.9mb 76f 65f
12:18am 21 26 mph 1015.9mb 76f 65f
12:12am 20 23 mph 1015.9mb 76f 65f
12:06am 20 24 mph 1016mb 76f 65f
12:00am 21 25 mph 1016mb 76f 65f
Tue 04/15 11:54pm 23 26 mph 1015.9mb 76f 66f
11:48pm 22 25 mph 1015.8mb 76f 66f
11:42pm 20 22 mph 1015.8mb 76f 66f
11:36pm 20 22 mph 1015.8mb 76f 66f
11:30pm 20 24 mph 1015.7mb 76f 66f
11:24pm 18 23 mph 1015.7mb 76f 67f
11:18pm 20 23 mph 1015.6mb 76f 67f
11:12pm 16 21 mph 1015.7mb 76f 66f
11:06pm 15 20 mph 1015.5mb 76f 67f
11:00pm 16 21 mph 1015.6mb 76f 67f
10:54pm 20 22 mph 1015.4mb 76f 67f
10:48pm 16 23 mph 1015.3mb 76f 67f
10:42pm 18 22 mph 1015.2mb 76f 67f
10:36pm 20 22 mph 1015.1mb 76f 67f
10:30pm 18 22 mph 1014.9mb 76f 67f
10:24pm 18 23 mph 1015mb 76f 68f
10:18pm 17 22 mph 1015mb 76f 68f
10:12pm 18 21 mph 1014.9mb 76f 68f
10:06pm 18 23 mph 1014.8mb 76f 68f
10:00pm 21 24 mph 1014.7mb 76f 67f
9:54pm 21 23 mph 1014.5mb 76f 68f
9:48pm 21 25 mph 1014.4mb 76f 68f
9:42pm 18 23 mph 1014.4mb 76f 68f
9:36pm 21 23 mph 1014.3mb 76f 68f
9:30pm 18 23 mph 1014.1mb 76f 68f
9:24pm 20 23 mph 1013.9mb 76f 68f
9:18pm 20 21 mph 1013.8mb 76f 68f
9:12pm 21 26 mph 1013.7mb 76f 68f
9:06pm 22 24 mph 1013.6mb 76f 68f
9:00pm 24 30 mph 1013.4mb 76f 68f
8:54pm 22 28 mph 1013.2mb 76f 69f
8:48pm 23 28 mph 1013mb 76f 69f
8:42pm 22 26 mph 1012.9mb 76f 69f
8:36pm 23 28 mph 1012.8mb 76f 69f
8:30pm 25 29 mph 1012.7mb 76f 69f
8:24pm 26 29 mph 1012.7mb 76f 69f
8:18pm 23 26 mph 1012.7mb 76f 69f
8:12pm 22 26 mph 1012.7mb 76f 69f
8:06pm 21 23 mph 1012.6mb 76f 69f
8:00pm 21 25 mph 1012.5mb 76f 69f
7:54pm 22 25 mph 1012.5mb 77f 69f
7:48pm 23 28 mph 1012.6mb 77f 69f
7:42pm 24 29 mph 1012.7mb 77f 69f
7:36pm 24 28 mph 1012.7mb 77f 69f
7:30pm 22 28 mph 1012.6mb 77f 69f
7:24pm 25 29 mph 1012.4mb 77f 69f
7:18pm 24 29 mph 1012.3mb 77f 69f
7:12pm 26 29 mph 1012.1mb 77f 69f
7:06pm 25 30 mph 1012mb 77f 69f
7:00pm 23 28 mph 1011.8mb 77f 70f
6:54pm 28 30 mph 1011.8mb 77f 69f
6:48pm 23 26 mph 1011.8mb 77f 69f
6:42pm 22 29 mph 1011.9mb 77f 69f
6:36pm 24 30 mph 1011.9mb 77f 69f
6:30pm 26 31 mph 1011.9mb 77f 69f
6:24pm 24 28 mph 1011.6mb 77f 70f
6:18pm 25 30 mph 1011.5mb 77f 71f
6:12pm 22 26 mph 1011.3mb 77f 73f
6:06pm 20 22 mph 1011.5mb 77f 74f
6:00pm 18 24 mph 1011.2mb 77f 74f
5:54pm 17 22 mph 1011.2mb 77f 74f
5:48pm 21 24 mph 1011.2mb 77f 74f
5:42pm 24 28 mph 1011mb 77f 74f
5:36pm 24 29 mph 1011mb 77f 75f
5:30pm 24 33 mph 1010.9mb 77f 76f
5:24pm 25 36 mph 1010.6mb 77f 76f
5:18pm 22 30 mph 1010.3mb 77f 76f
5:12pm 20 26 mph 1010.5mb 77f 77f
5:06pm 22 26 mph 1010.5mb 77f 77f
5:00pm 20 22 mph 1010.4mb 77f 77f
4:54pm 17 25 mph 1010.4mb 77f 77f
4:48pm 18 23 mph 1010.3mb 77f 77f
4:42pm 18 22 mph 1010.2mb 77f 77f
4:36pm 17 23 mph 1010.2mb 77f 77f
4:30pm 23 25 mph 1010.4mb 77f 77f
4:24pm 20 23 mph 1010.6mb 77f 77f
4:18pm 20 26 mph 1010.7mb 77f 77f
4:12pm 22 25 mph 1010.8mb 77f 78f
4:06pm 23 30 mph 1011.2mb 78f 78f
4:00pm 23 28 mph 1011.3mb 78f 78f
3:54pm 23 28 mph 1011.5mb 77f 78f
3:48pm 23 29 mph 1011.6mb 76f 78f
3:42pm 23 29 mph 1011.8mb 76f 78f
3:36pm 21 23 mph 1011.7mb 77f 78f
3:30pm 24 28 mph 1011.7mb 77f 78f
3:24pm 22 29 mph 1011.7mb 77f 78f
3:18pm 24 29 mph 1011.7mb 77f 78f
3:12pm 22 26 mph 1011.7mb 77f 78f
3:06pm 18 28 mph 1011.8mb 78f 78f
3:00pm 21 25 mph 1011.9mb 78f 77f
2:54pm 21 24 mph 1011.8mb 78f 77f
2:48pm 22 29 mph 1011.8mb 78f 77f
2:42pm 24 29 mph 1011.9mb 78f 77f
2:36pm 20 25 mph 1012mb 78f 77f
2:30pm 21 26 mph 1012mb - 77f
2:24pm 22 26 mph 1012.1mb - 78f
2:18pm 22 28 mph 1012.2mb 78f 77f
2:12pm 22 26 mph 1012mb 78f 77f
2:06pm 24 31 mph 1012.1mb 78f 76f
2:00pm 28 32 mph 1012mb 78f 77f
1:54pm 28 34 mph 1012.1mb 78f 77f
1:48pm 28 32 mph 1012mb 77f 77f
1:42pm 25 29 mph 1011.9mb 77f 77f
1:36pm 25 30 mph 1011.9mb 77f 77f
1:30pm 22 29 mph 1011.7mb 77f 76f
1:24pm 26 31 mph 1012mb 77f 76f
1:18pm 25 29 mph 1011.9mb 78f 76f
1:12pm 28 34 mph 1011.9mb 78f 77f
1:06pm 26 32 mph 1012mb 77f 76f
1:00pm 26 31 mph 1011.7mb 77f 77f
12:54pm 25 30 mph 1011.7mb 77f 78f
12:48pm 26 32 mph 1011.8mb 77f 78f
12:42pm 23 29 mph 1011.7mb 77f 78f